Location: Brookfield Center
(41.2406°N, 80.5579°W)
Time: 10:04:32
(UTC+00:00)

SL-16 R/B - Pass Details

Date: 18 January 2020
Orbit: 841 x 848 km, 71.0° (Epoch: 18 February)

Event Time Altitude Azimuth Distance (km) Brightness Sun altitude
Rises 00:06:14 0° 346° (NNW) 3,418 5.4 -19.7°
Reaches altitude 10° 00:09:13 10° 0° (N) 2,477 4.5 -20.2°
Enters shadow 00:11:41 20° 23° (NNE) 1,890 3.7 -20.7°
